Time,TemperatureF,DewpointF,PressureIn,WindDirection,WindDirectionDegrees,WindSpeedMPH,WindSpeedGustMPH,Humidity,HourlyPrecipIn,Conditions,Clouds,dailyrainin,SoftwareType,DateUTC
2013-05-24 00:02:00,45.0,42.0,-100.00,ESE,114,13.0,16.0,90,0.00,,,-99.99,,2013-05-24 06:02:00,
2013-05-24 00:12:00,45.0,42.0,-100.00,ESE,117,14.0,16.0,90,0.00,,,-99.99,,2013-05-24 06:12:00,
2013-05-24 00:21:00,44.0,42.0,-100.00,ESE,117,13.0,17.0,90,0.00,,,-99.99,,2013-05-24 06:21:00,
2013-05-24 00:32:00,44.0,42.0,-100.00,ESE,120,13.0,17.0,91,0.00,,,-99.99,,2013-05-24 06:32:00,
2013-05-24 00:41:00,44.0,42.0,-100.00,ESE,119,14.0,19.0,91,0.00,,,-99.99,,2013-05-24 06:41:00,
2013-05-24 00:52:00,44.0,41.0,-100.00,SE,126,17.0,20.0,91,0.00,,,-99.99,,2013-05-24 06:52:00,
2013-05-24 01:01:00,43.0,41.0,-100.00,SE,127,16.0,20.0,92,0.00,,,-99.99,,2013-05-24 07:01:00,
2013-05-24 01:11:00,44.0,41.0,-100.00,SE,131,17.0,21.0,91,0.00,,,-99.99,,2013-05-24 07:11:00,
2013-05-24 01:22:00,44.0,41.0,-100.00,SE,134,18.0,22.0,91,0.00,,,-99.99,,2013-05-24 07:22:00,
2013-05-24 01:32:00,43.0,41.0,-100.00,SE,136,17.0,20.0,92,0.00,,,-99.99,,2013-05-24 07:32:00,
2013-05-24 01:42:00,43.0,41.0,-100.00,SE,136,17.0,20.0,92,0.00,,,-99.99,,2013-05-24 07:42:00,
2013-05-24 01:52:00,43.0,41.0,-100.00,SE,137,16.0,19.0,92,0.00,,,-99.99,,2013-05-24 07:52:00,
2013-05-24 02:02:00,43.0,41.0,-100.00,SE,138,16.0,19.0,92,0.00,,,-99.99,,2013-05-24 08:02:00,
2013-05-24 02:11:00,43.0,40.0,-100.00,SE,136,16.0,19.0,92,0.00,,,-99.99,,2013-05-24 08:11:00,
2013-05-24 02:22:00,43.0,40.0,-100.00,SE,131,15.0,17.0,92,0.00,,,-99.99,,2013-05-24 08:22:00,
2013-05-24 02:32:00,43.0,41.0,-100.00,SE,136,14.0,17.0,92,0.00,,,-99.99,,2013-05-24 08:32:00,
2013-05-24 02:42:00,44.0,40.0,-100.00,SE,145,16.0,19.0,88,0.00,,,-99.99,,2013-05-24 08:42:00,
2013-05-24 02:52:00,45.0,41.0,-100.00,SE,144,16.0,18.0,86,0.00,,,-99.99,,2013-05-24 08:52:00,
2013-05-24 03:01:00,45.0,40.0,-100.00,SE,140,15.0,17.0,83,0.00,,,-99.99,,2013-05-24 09:01:00,
2013-05-24 03:11:00,47.0,40.0,-100.00,SE,136,16.0,17.0,74,0.00,,,-99.99,,2013-05-24 09:11:00,
2013-05-24 03:21:00,48.0,38.0,-100.00,SE,138,15.0,17.0,68,0.00,,,-99.99,,2013-05-24 09:21:00,
2013-05-24 03:32:00,49.0,38.0,-100.00,SE,137,14.0,16.0,64,0.00,,,-99.99,,2013-05-24 09:32:00,
2013-05-24 03:42:00,49.0,37.0,-100.00,SE,138,14.0,16.0,63,0.00,,,-99.99,,2013-05-24 09:42:00,
2013-05-24 03:52:00,49.0,36.0,-100.00,SE,137,15.0,18.0,60,0.00,,,-99.99,,2013-05-24 09:52:00,
2013-05-24 04:02:00,47.0,35.0,-100.00,SE,137,16.0,19.0,61,0.00,,,-99.99,,2013-05-24 10:02:00,
2013-05-24 04:12:00,49.0,34.0,-100.00,SE,138,17.0,19.0,57,0.00,,,-99.99,,2013-05-24 10:12:00,
2013-05-24 04:22:00,49.0,32.0,-100.00,SE,137,16.0,19.0,51,0.00,,,-99.99,,2013-05-24 10:22:00,
2013-05-24 04:32:00,47.0,29.0,-100.00,SE,134,14.0,17.0,50,0.00,,,-99.99,,2013-05-24 10:32:00,
2013-05-24 04:42:00,45.0,28.0,-100.00,SE,134,11.0,17.0,52,0.00,,,-99.99,,2013-05-24 10:42:00,
2013-05-24 04:52:00,46.0,27.0,-100.00,SE,128,11.0,19.0,48,0.00,,,-99.99,,2013-05-24 10:52:00,
2013-05-24 05:02:00,45.0,26.0,-100.00,SE,131,10.0,13.0,47,0.00,,,-99.99,,2013-05-24 11:02:00,
2013-05-24 05:12:00,52.0,21.0,-100.00,SSE,168,9.0,14.0,29,0.00,,,-99.99,,2013-05-24 11:12:00,
2013-05-24 05:22:00,46.0,20.0,-100.00,SW,222,7.0,12.0,35,0.00,,,-99.99,,2013-05-24 11:22:00,
2013-05-24 05:32:00,47.0,22.0,-100.00,NW,311,7.0,14.0,36,0.00,,,-99.99,,2013-05-24 11:32:00,
2013-05-24 05:42:00,46.0,24.0,-100.00,WNW,294,10.0,22.0,43,0.00,,,-99.99,,2013-05-24 11:42:00,
2013-05-24 05:51:00,46.0,24.0,-100.00,West,275,7.0,10.0,41,0.00,,,-99.99,,2013-05-24 11:51:00,
2013-05-24 06:02:00,47.0,24.0,-100.00,WSW,251,5.0,9.0,40,0.00,,,-99.99,,2013-05-24 12:02:00,
2013-05-24 06:11:00,47.0,25.0,-100.00,WSW,243,6.0,16.0,41,0.00,,,-99.99,,2013-05-24 12:11:00,
2013-05-24 06:21:00,47.0,25.0,-100.00,WSW,244,8.0,16.0,42,0.00,,,-99.99,,2013-05-24 12:21:00,
2013-05-24 06:32:00,46.0,26.0,-100.00,SW,236,11.0,17.0,44,0.00,,,-99.99,,2013-05-24 12:32:00,
2013-05-24 06:42:00,46.0,26.0,-100.00,WSW,240,11.0,21.0,45,0.00,,,-99.99,,2013-05-24 12:42:00,
2013-05-24 06:52:00,47.0,26.0,-100.00,WSW,251,10.0,19.0,44,0.00,,,-99.99,,2013-05-24 12:52:00,
2013-05-24 07:02:00,47.0,26.0,-100.00,WSW,253,12.0,19.0,44,0.00,,,-99.99,,2013-05-24 13:02:00,
2013-05-24 07:11:00,46.0,26.0,-100.00,WSW,247,12.0,19.0,44,0.00,,,-99.99,,2013-05-24 13:11:00,
2013-05-24 07:21:00,46.0,26.0,-100.00,WSW,253,12.0,19.0,45,0.00,,,-99.99,,2013-05-24 13:21:00,
2013-05-24 07:32:00,45.0,27.0,-100.00,West,264,15.0,20.0,47,0.00,,,-99.99,,2013-05-24 13:32:00,
2013-05-24 07:41:00,45.0,26.0,-100.00,West,267,14.0,18.0,46,0.00,,,-99.99,,2013-05-24 13:41:00,
2013-05-24 07:52:00,47.0,25.0,-100.00,West,271,15.0,23.0,42,0.00,,,-99.99,,2013-05-24 13:52:00,
2013-05-24 08:01:00,49.0,25.0,-100.00,West,265,17.0,21.0,39,0.00,,,-99.99,,2013-05-24 14:01:00,
2013-05-24 08:11:00,50.0,26.0,-100.00,West,267,16.0,19.0,39,0.00,,,-99.99,,2013-05-24 14:11:00,
2013-05-24 08:21:00,51.0,25.0,-100.00,West,272,14.0,20.0,35,0.00,,,-99.99,,2013-05-24 14:21:00,
2013-05-24 08:32:00,52.0,24.0,-100.00,West,271,16.0,20.0,34,0.00,,,-99.99,,2013-05-24 14:32:00,
2013-05-24 08:42:00,53.0,24.0,-100.00,West,268,13.0,17.0,32,0.00,,,-99.99,,2013-05-24 14:42:00,
2013-05-24 08:52:00,53.0,25.0,-100.00,West,278,9.0,14.0,33,0.00,,,-99.99,,2013-05-24 14:52:00,
2013-05-24 09:02:00,54.0,25.0,-100.00,WNW,285,10.0,16.0,32,0.00,,,-99.99,,2013-05-24 15:02:00,
2013-05-24 09:11:00,54.0,24.0,-100.00,West,281,10.0,15.0,32,0.00,,,-99.99,,2013-05-24 15:11:00,
2013-05-24 09:21:00,55.0,24.0,-100.00,West,267,9.0,14.0,29,0.00,,,-99.99,,2013-05-24 15:21:00,
2013-05-24 09:32:00,56.0,22.0,-100.00,West,267,9.0,14.0,27,0.00,,,-99.99,,2013-05-24 15:32:00,
2013-05-24 09:43:00,57.0,23.0,-100.00,West,264,11.0,16.0,26,0.00,,,-99.99,,2013-05-24 15:43:00,
2013-05-24 09:52:00,57.0,28.0,-100.00,SW,223,9.0,18.0,33,0.00,,,-99.99,,2013-05-24 15:52:00,
2013-05-24 10:03:00,56.0,29.0,-100.00,ESE,104,12.0,18.0,35,0.00,,,-99.99,,2013-05-24 16:03:00,
2013-05-24 10:12:00,57.0,29.0,-100.00,ESE,102,11.0,16.0,34,0.00,,,-99.99,,2013-05-24 16:12:00,
2013-05-24 10:22:00,57.0,31.0,-100.00,East,82,10.0,16.0,37,0.00,,,-99.99,,2013-05-24 16:22:00,
2013-05-24 10:32:00,57.0,28.0,-100.00,East,82,7.0,16.0,33,0.00,,,-99.99,,2013-05-24 16:32:00,
2013-05-24 10:42:00,57.0,30.0,-100.00,ENE,71,7.0,12.0,35,0.00,,,-99.99,,2013-05-24 16:42:00,
2013-05-24 10:52:00,58.0,30.0,-100.00,NE,47,7.0,13.0,34,0.00,,,-99.99,,2013-05-24 16:52:00,
2013-05-24 11:02:00,59.0,29.0,-100.00,NE,41,7.0,12.0,32,0.00,,,-99.99,,2013-05-24 17:02:00,
2013-05-24 11:12:00,60.0,30.0,-100.00,East,89,6.0,10.0,32,0.00,,,-99.99,,2013-05-24 17:12:00,
2013-05-24 11:22:00,62.0,28.0,-100.00,NE,38,4.0,10.0,28,0.00,,,-99.99,,2013-05-24 17:22:00,
2013-05-24 11:32:00,60.0,30.0,-100.00,NNE,30,9.0,15.0,32,0.00,,,-99.99,,2013-05-24 17:32:00,
2013-05-24 11:41:00,61.0,26.0,-100.00,NE,41,7.0,13.0,26,0.00,,,-99.99,,2013-05-24 17:41:00,
2013-05-24 11:52:00,60.0,28.0,-100.00,ENE,64,6.0,11.0,30,0.00,,,-99.99,,2013-05-24 17:52:00,
2013-05-24 12:01:00,63.0,16.0,-100.00,SE,145,12.0,24.0,16,0.00,,,-99.99,,2013-05-24 18:01:00,
2013-05-24 12:11:00,62.0,17.0,-100.00,SSE,165,12.0,19.0,17,0.00,,,-99.99,,2013-05-24 18:11:00,
2013-05-24 12:21:00,64.0,22.0,-100.00,South,175,10.0,24.0,19,0.00,,,-99.99,,2013-05-24 18:21:00,
2013-05-24 12:32:00,64.0,19.0,-100.00,SSE,162,14.0,21.0,18,0.00,,,-99.99,,2013-05-24 18:32:00,
2013-05-24 12:41:00,65.0,19.0,-100.00,South,169,11.0,24.0,17,0.00,,,-99.99,,2013-05-24 18:41:00,
2013-05-24 12:51:00,65.0,17.0,-100.00,South,176,12.0,22.0,15,0.00,,,-99.99,,2013-05-24 18:51:00,
2013-05-24 13:01:00,66.0,20.0,-100.00,SSW,199,10.0,18.0,17,0.00,,,-99.99,,2013-05-24 19:01:00,
2013-05-24 13:11:00,65.0,19.0,-100.00,SSW,199,9.0,19.0,17,0.00,,,-99.99,,2013-05-24 19:11:00,
2013-05-24 13:21:00,66.0,21.0,-100.00,SSW,200,9.0,21.0,18,0.00,,,-99.99,,2013-05-24 19:21:00,
2013-05-24 13:32:00,66.0,20.0,-100.00,SSW,202,6.0,16.0,17,0.00,,,-99.99,,2013-05-24 19:32:00,
2013-05-24 13:41:00,66.0,22.0,-100.00,South,189,11.0,26.0,19,0.00,,,-99.99,,2013-05-24 19:41:00,
2013-05-24 13:52:00,66.0,18.0,-100.00,South,178,14.0,22.0,16,0.00,,,-99.99,,2013-05-24 19:52:00,
2013-05-24 14:02:00,67.0,18.0,-100.00,SSW,200,12.0,26.0,15,0.00,,,-99.99,,2013-05-24 20:02:00,
2013-05-24 14:11:00,66.0,22.0,-100.00,SW,217,12.0,22.0,18,0.00,,,-99.99,,2013-05-24 20:11:00,
2013-05-24 14:21:00,67.0,17.0,-100.00,SSW,206,12.0,27.0,15,0.00,,,-99.99,,2013-05-24 20:21:00,
2013-05-24 14:32:00,67.0,15.0,-100.00,SW,220,16.0,29.0,13,0.00,,,-99.99,,2013-05-24 20:32:00,
2013-05-24 14:41:00,67.0,17.0,-100.00,WSW,237,14.0,24.0,14,0.00,,,-99.99,,2013-05-24 20:41:00,
2013-05-24 14:51:00,67.0,15.0,-100.00,SSW,199,9.0,22.0,13,0.00,,,-99.99,,2013-05-24 20:51:00,
2013-05-24 15:01:00,68.0,17.0,-100.00,SW,227,11.0,22.0,14,0.00,,,-99.99,,2013-05-24 21:01:00,
2013-05-24 15:11:00,67.0,18.0,-100.00,SW,226,14.0,29.0,15,0.00,,,-99.99,,2013-05-24 21:11:00,
2013-05-24 15:21:00,68.0,16.0,-100.00,SW,223,12.0,21.0,13,0.00,,,-99.99,,2013-05-24 21:21:00,
2013-05-24 15:32:00,67.0,16.0,-100.00,SSW,209,10.0,22.0,14,0.00,,,-99.99,,2013-05-24 21:32:00,
2013-05-24 15:42:00,69.0,17.0,-100.00,SSW,195,9.0,17.0,13,0.00,,,-99.99,,2013-05-24 21:42:00,
2013-05-24 15:52:00,69.0,15.0,-100.00,SSW,212,10.0,20.0,13,0.00,,,-99.99,,2013-05-24 21:52:00,
2013-05-24 16:02:00,69.0,16.0,-100.00,SSW,205,12.0,24.0,13,0.00,,,-99.99,,2013-05-24 22:02:00,
2013-05-24 16:12:00,69.0,17.0,-100.00,SSW,196,12.0,22.0,13,0.00,,,-99.99,,2013-05-24 22:12:00,
2013-05-24 16:22:00,69.0,17.0,-100.00,SSW,210,12.0,24.0,13,0.00,,,-99.99,,2013-05-24 22:22:00,
2013-05-24 16:33:00,70.0,17.0,-100.00,SW,217,12.0,22.0,13,0.00,,,-99.99,,2013-05-24 22:33:00,
2013-05-24 16:42:00,69.0,18.0,-100.00,SSW,196,10.0,19.0,14,0.00,,,-99.99,,2013-05-24 22:42:00,
2013-05-24 16:52:00,70.0,18.0,-100.00,South,185,11.0,20.0,14,0.00,,,-99.99,,2013-05-24 22:52:00,
2013-05-24 17:02:00,69.0,18.0,-100.00,South,179,11.0,21.0,14,0.00,,,-99.99,,2013-05-24 23:02:00,
2013-05-24 17:11:00,69.0,14.0,-100.00,South,179,14.0,24.0,12,0.00,,,-99.99,,2013-05-24 23:11:00,
2013-05-24 17:22:00,69.0,18.0,-100.00,South,174,14.0,24.0,14,0.00,,,-99.99,,2013-05-24 23:22:00,
2013-05-24 17:32:00,69.0,16.0,-100.00,South,182,11.0,23.0,13,0.00,,,-99.99,,2013-05-24 23:32:00,
2013-05-24 17:42:00,69.0,17.0,-100.00,South,181,11.0,23.0,13,0.00,,,-99.99,,2013-05-24 23:42:00,
2013-05-24 17:52:00,68.0,18.0,-100.00,South,188,12.0,22.0,14,0.00,,,-99.99,,2013-05-24 23:52:00,
2013-05-24 18:01:00,69.0,17.0,-100.00,South,184,11.0,18.0,14,0.00,,,-99.99,,2013-05-25 00:01:00,
2013-05-24 18:11:00,68.0,18.0,-100.00,SSW,196,10.0,20.0,15,0.00,,,-99.99,,2013-05-25 00:11:00,
2013-05-24 18:21:00,68.0,17.0,-100.00,South,188,9.0,19.0,14,0.00,,,-99.99,,2013-05-25 00:21:00,
2013-05-24 18:32:00,68.0,17.0,-100.00,South,181,6.0,13.0,14,0.00,,,-99.99,,2013-05-25 00:32:00,
2013-05-24 18:41:00,67.0,18.0,-100.00,South,182,7.0,15.0,15,0.00,,,-99.99,,2013-05-25 00:41:00,
2013-05-24 18:51:00,67.0,19.0,-100.00,South,175,7.0,12.0,16,0.00,,,-99.99,,2013-05-25 00:51:00,
2013-05-24 19:01:00,67.0,17.0,-100.00,South,191,6.0,13.0,15,0.00,,,-99.99,,2013-05-25 01:01:00,
2013-05-24 19:11:00,66.0,20.0,-100.00,SW,220,7.0,15.0,17,0.00,,,-99.99,,2013-05-25 01:11:00,
2013-05-24 19:22:00,66.0,20.0,-100.00,SSW,213,7.0,12.0,17,0.00,,,-99.99,,2013-05-25 01:22:00,
2013-05-24 19:32:00,65.0,20.0,-100.00,SSW,202,6.0,12.0,17,0.00,,,-99.99,,2013-05-25 01:32:00,
2013-05-24 19:41:00,65.0,22.0,-100.00,SSW,212,4.0,9.0,19,0.00,,,-99.99,,2013-05-25 01:41:00,
2013-05-24 19:52:00,64.0,22.0,-100.00,SSW,209,4.0,9.0,20,0.00,,,-99.99,,2013-05-25 01:52:00,
2013-05-24 20:01:00,63.0,22.0,-100.00,SSW,196,1.0,4.0,21,0.00,,,-99.99,,2013-05-25 02:01:00,
2013-05-24 20:11:00,63.0,21.0,-100.00,South,186,2.0,5.0,20,0.00,,,-99.99,,2013-05-25 02:11:00,
2013-05-24 20:21:00,62.0,22.0,-100.00,South,184,2.0,4.0,21,0.00,,,-99.99,,2013-05-25 02:21:00,
2013-05-24 20:31:00,62.0,20.0,-100.00,SSE,154,2.0,4.0,19,0.00,,,-99.99,,2013-05-25 02:31:00,
2013-05-24 20:42:00,61.0,21.0,-100.00,South,178,2.0,4.0,21,0.00,,,-99.99,,2013-05-25 02:42:00,
2013-05-24 20:51:00,61.0,20.0,-100.00,South,175,1.0,3.0,20,0.00,,,-99.99,,2013-05-25 02:51:00,
2013-05-24 21:01:00,60.0,23.0,-100.00,SSW,193,1.0,4.0,24,0.00,,,-99.99,,2013-05-25 03:01:00,
2013-05-24 21:11:00,59.0,20.0,-100.00,SSW,196,1.0,2.0,22,0.00,,,-99.99,,2013-05-25 03:11:00,
2013-05-24 21:21:00,58.0,22.0,-100.00,SSW,212,1.0,3.0,24,0.00,,,-99.99,,2013-05-25 03:21:00,
2013-05-24 21:32:00,56.0,22.0,-100.00,SSW,198,1.0,4.0,26,0.00,,,-99.99,,2013-05-25 03:32:00,
2013-05-24 21:43:00,56.0,23.0,-100.00,WNW,288,2.0,6.0,27,0.00,,,-99.99,,2013-05-25 03:43:00,
2013-05-24 21:53:00,55.0,22.0,-100.00,WNW,284,4.0,6.0,27,0.00,,,-99.99,,2013-05-25 03:53:00,
2013-05-24 22:02:00,56.0,23.0,-100.00,NW,318,2.0,6.0,28,0.00,,,-99.99,,2013-05-25 04:02:00,
2013-05-24 22:12:00,54.0,22.0,-100.00,ESE,114,6.0,9.0,29,0.00,,,-99.99,,2013-05-25 04:12:00,
2013-05-24 22:23:00,57.0,21.0,-100.00,SE,133,6.0,10.0,25,0.00,,,-99.99,,2013-05-25 04:23:00,
2013-05-24 22:33:00,57.0,21.0,-100.00,SSE,162,8.0,11.0,25,0.00,,,-99.99,,2013-05-25 04:33:00,
2013-05-24 22:43:00,58.0,21.0,-100.00,South,172,13.0,16.0,24,0.00,,,-99.99,,2013-05-25 04:43:00,
2013-05-24 22:52:00,56.0,23.0,-100.00,SSE,160,14.0,17.0,27,0.00,,,-99.99,,2013-05-25 04:52:00,
2013-05-24 23:02:00,56.0,27.0,-100.00,SSE,160,14.0,16.0,32,0.00,,,-99.99,,2013-05-25 05:02:00,
2013-05-24 23:12:00,56.0,28.0,-100.00,SSE,160,14.0,16.0,34,0.00,,,-99.99,,2013-05-25 05:12:00,
2013-05-24 23:22:00,55.0,30.0,-100.00,SSE,155,12.0,14.0,39,0.00,,,-99.99,,2013-05-25 05:22:00,
2013-05-24 23:32:00,52.0,30.0,-100.00,SE,131,10.0,14.0,42,0.00,,,-99.99,,2013-05-25 05:32:00,
2013-05-24 23:42:00,51.0,32.0,-100.00,ESE,120,7.0,11.0,49,0.00,,,-99.99,,2013-05-25 05:42:00,
2013-05-24 23:52:00,52.0,33.0,-100.00,SE,136,11.0,13.0,47,0.00,,,-99.99,,2013-05-25 05:52:00,